Tracking 18630 objects as of 25-May-2017
HD Live streaming from Space Station
objects crossing your sky now

DMSP 5D-2 F13 (USA 109)

Track DMSP 5D-2 F13 (USA 109) now!
10-day predictions
DMSP 5D-2 F13 (USA 109) is classified as:


NORAD ID: 23533
Int'l Code: 1995-015A
Perigee: 839.5 km
Apogee: 853.9 km
Inclination: 98.8 °
Period: 101.7 minutes
Semi major axis: 7217 km
RCS: Unknown
Launch date: March 24, 1995
Source: United States (US)
Launch site: AIR FORCE WESTERN TEST RANGE (AFWTR)

Near-polar orbits; investigate Earth's environment.
Your satellite tracking list
Your tracking list is empty





NASA's NSSDC Master Catalog

Two Line Element Set (TLE):
1 23533U 95015A   17061.21724410 0.00000020  00000-0  10184-4 0    05
2 23533  98.7786  63.6144 0010000 117.4053 242.5945 14.15811587    01
Source of the keplerian elements: McCants